Wetterdaten Sommer 2014

Datum T max T min Regen
01.06.2014 20.8 °C 8.8 °C 0 mm
02.06.2014 19.7 °C 12.3 °C 4.4 mm
03.06.2014 22.3 °C 10.5 °C 0 mm
04.06.2014 22.1 °C 10.3 °C 2.6 mm
05.06.2014 21 °C 9.9 °C 0 mm
06.06.2014 27.2 °C 8.1 °C 0 mm
07.06.2014 31.2 °C 12.3 °C 0 mm
08.06.2014 34.5 °C 15.7 °C 0 mm
09.06.2014 35.7 °C 17.8 °C 0 mm
10.06.2014 33.4 °C 19.8 °C 0 mm
11.06.2014 28.5 °C 19.6 °C 0 mm
12.06.2014 28.2 °C 16.2 °C 0 mm
13.06.2014 26.1 °C 15.8 °C 0 mm
14.06.2014 20.9 °C 12.9 °C 0 mm
15.06.2014 23.3 °C 9.2 °C 0 mm
16.06.2014 23.1 °C 9.7 °C 0 mm
17.06.2014 22.1 °C 12.2 °C 0 mm
18.06.2014 25.3 °C 11.2 °C 0.2 mm
19.06.2014 23.5 °C 12.6 °C 0 mm
20.06.2014 19.2 °C 11 °C 1 mm
21.06.2014 22.8 °C 8.5 °C 0 mm
22.06.2014 25.2 °C 8.6 °C 0 mm
23.06.2014 25.2 °C 9.6 °C 0 mm
24.06.2014 25.7 °C 13.6 °C 0 mm
25.06.2014 20.8 °C 11.7 °C 0.4 mm
26.06.2014 23.7 °C 6.7 °C 0 mm
27.06.2014 26.6 °C 9.4 °C 0 mm
28.06.2014 22.4 °C 15.5 °C 2.2 mm
29.06.2014 19.7 °C 13.8 °C 5.4 mm
30.06.2014 20.2 °C 12.4 °C 3 mm
01.07.2014 23.7 °C 11.1 °C 0 mm
02.07.2014 23.8 °C 12.6 °C 0 mm
03.07.2014 28.4 °C 12.2 °C 0 mm
04.07.2014 30.6 °C 13.9 °C 0 mm
05.07.2014 23.6 °C 16.4 °C 2.6 mm
06.07.2014 31.2 °C 15.9 °C 6.4 mm
07.07.2014 23.8 °C 15.1 °C 19.4 mm
08.07.2014 16.7 °C 13.2 °C 10.4 mm
09.07.2014 13.4 °C 11.6 °C 11.6 mm
10.07.2014 16 °C 11.9 °C 0.2 mm
11.07.2014 24.7 °C 14.7 °C 0.2 mm
12.07.2014 23.3 °C 16.2 °C 2.6 mm
13.07.2014 23.9 °C 15.8 °C 2.4 mm
14.07.2014 24.7 °C 15.8 °C 8.2 mm
15.07.2014 26.1 °C 15.7 °C 0 mm
16.07.2014 26.9 °C 14.7 °C 0 mm
17.07.2014 29.7 °C 14.3 °C 0 mm
18.07.2014 32 °C 15.4 °C 0 mm
19.07.2014 32.8 °C 16.2 °C 0 mm
20.07.2014 28 °C 18 °C 5.6 mm
21.07.2014 21.4 °C 17.7 °C 5.4 mm
22.07.2014 25.2 °C 17.6 °C 34.6 mm
23.07.2014 28.1 °C 16.5 °C 0.2 mm
24.07.2014 27.3 °C 14.1 °C 0 mm
25.07.2014 26.3 °C 15.6 °C 1.6 mm
26.07.2014 22.1 °C 14.7 °C 1 mm
27.07.2014 27.2 °C 16.7 °C 0 mm
28.07.2014 26.9 °C 15.9 °C 20.4 mm
29.07.2014 20.7 °C 16 °C 12.8 mm
30.07.2014 22.3 °C 17.3 °C 2.8 mm
31.07.2014 25.8 °C 15.8 °C 0 mm
01.08.2014 25.8 °C 15.1 °C 0 mm
02.08.2014 24.4 °C 14.9 °C 0.4 mm
03.08.2014 24.3 °C 16.5 °C 0.4 mm
04.08.2014 25.9 °C 15.3 °C 0 mm
05.08.2014 22.9 °C 13.2 °C 0 mm
06.08.2014 24.7 °C 12.8 °C 0.4 mm
07.08.2014 24.4 °C 16.3 °C 0.8 mm
08.08.2014 27.1 °C 15.2 °C 0 mm
09.08.2014 25.6 °C 16.9 °C 0 mm
10.08.2014 27.9 °C 16.6 °C 2.8 mm
11.08.2014 22.7 °C 16.5 °C 0.4 mm
12.08.2014 22.2 °C 15.4 °C 0 mm
13.08.2014 18.7 °C 14.3 °C 6.4 mm
14.08.2014 17.8 °C 12.4 °C 12.2 mm
15.08.2014 17.5 °C 13.3 °C 9.8 mm
16.08.2014 19.4 °C 12.3 °C 3.4 mm
17.08.2014 21.4 °C 11.7 °C 0 mm
18.08.2014 18.7 °C 13.4 °C 0.6 mm
19.08.2014 20.3 °C 11.4 °C 0 mm
20.08.2014 18.1 °C 9.6 °C 0 mm
21.08.2014 19.4 °C 9.1 °C 0 mm
22.08.2014 19.9 °C 9.9 °C 0 mm
23.08.2014 18.4 °C 10.7 °C 9.4 mm
24.08.2014 17.8 °C 9.4 °C 2.2 mm
25.08.2014 19.4 °C 9.2 °C 1 mm
26.08.2014 20.1 °C 13.1 °C 48.4 mm
27.08.2014 19.7 °C 13.2 °C 0 mm
28.08.2014 23 °C 11.4 °C 0 mm
29.08.2014 23.6 °C 14.8 °C 0 mm
30.08.2014 22.6 °C 15.1 °C 0 mm
31.08.2014 17.7 °C 12.6 °C 25.2 mm
 Hinweis zur Datenqualität
∅ Temperatur

18.4 °C

Abweichung vom Mittel

-0.3 °C

Niederschlag

291.4 mm

Abweichung vom Mittel

131 %

35.7 °C

Lufttemperatur
09.06.2014

1025 hPa

Luftdruck
11.06.2014

43.9 km/h

Windböen
10.08.2014

291.4 mm

Niederschlag
 

6.7 °C

Lufttemperatur
26.06.2014

7.2 °C

Bodentemperatur 5cm
12.05.2014

1004 hPa

Luftdruck
13.08.2014
 Hinweis zur Datenqualität